CW6351 Weather Reports


time (UTC)temp
C
wind
direction
speed
KPH
gust
KPH
rain 1hr
cm
rain 24hr
cm
rain mn
cm
humidity
%
barometer
mb
20260504045816 13 203 8.0 16.1 0.00 0.00 0.00 41 999.7
20260504044836 13 203 8.0 11.3 0.00 0.00 0.00 41 999.9
20260504043816 13 203 9.7 12.9 0.00 0.00 0.00 43 1000.0
20260504042836 13 203 6.4 12.9 0.00 0.00 0.00 42 1000.2
20260504041816 13 203 6.4 9.7 0.00 0.00 0.00 43 1000.5
20260504040816 13 203 6.4 9.7 0.00 0.00 0.00 43 1000.8
20260504035815 13 203 8.0 12.9 0.00 0.00 0.00 42 1001.1
20260504034836 13 203 8.0 9.7 0.00 0.00 0.00 42 1001.3
20260504033815 13 203 6.4 12.9 0.00 0.00 0.00 42 1001.5
20260504032816 13 203 8.0 11.3 0.00 0.00 0.00 41 1001.9
20260504031836 13 203 6.4 9.7 0.00 0.00 0.00 39 1002.0
20260504030816 13 203 6.4 9.7 0.00 0.00 0.00 39 1002.4
20260504025816 13 203 6.4 9.7 0.00 0.00 0.00 38 1002.4
20260504024836 13 225 4.8 9.7 0.00 0.00 0.00 39 1002.6
20260504023836 13 203 8.0 9.7 0.00 0.00 0.00 40 1002.7
20260504022816 13 225 4.8 8.0 0.00 0.00 0.00 38 1002.9
20260504021816 13 225 4.8 6.4 0.00 0.00 0.00 38 1003.0
20260504020815 14 225 6.4 8.0 0.00 0.00 0.00 36 1003.1
20260504015856 15 225 3.2 4.8 0.00 0.00 0.00 34 1003.1
20260504014815 15 225 1.6 3.2 0.00 0.00 0.00 33 1003.2
20260504013816 15 225 3.2 4.8 0.00 0.00 0.00 33 1003.2
20260504012816 16 248 3.2 4.8 0.00 0.00 0.00 31 1003.4
20260504011836 16 270 6.4 9.7 0.00 0.00 0.00 31 1003.5
20260504010816 17 270 4.8 9.7 0.00 0.00 0.00 28 1003.4
20260504005816 17 270 9.7 14.5 0.00 0.00 0.00 30 1003.5
20260504004815 17 270 11.3 16.1 0.00 0.00 0.00 30 1003.5
20260504003836 18 270 12.9 17.7 0.00 0.00 0.00 28 1003.5
20260504002836 18 270 9.7 14.5 0.00 0.00 0.00 28 1003.4
20260504001815 18 270 8.0 14.5 0.00 0.00 0.00 27 1003.5
20260504000815 18 270 12.9 17.7 0.00 0.00 0.00 27 1003.5
20260503235815 19 270 12.9 22.5 0.00 0.00 0.00 25 1003.4
20260503234815 19 270 16.1 22.5 0.00 0.00 0.00 24 1003.5
20260503233815 19 270 12.9 17.7 0.00 0.00 0.00 25 1003.6
20260503232815 19 270 14.5 20.9 0.00 0.00 0.00 27 1003.8
20260503231815 18 293 6.4 17.7 0.00 0.00 0.00 28 1003.8
20260503230815 18 270 16.1 20.9 0.00 0.00 0.00 28 1003.7
20260503225835 19 270 9.7 14.5 0.00 0.00 0.00 25 1003.9
20260503224815 20 315 8.0 20.9 0.00 0.00 0.00 26 1003.8
20260503223815 20 270 12.9 20.9 0.00 0.00 0.00 24 1003.8
20260503222815 20 270 19.3 25.7 0.00 0.00 0.00 26 1003.9
20260503221815 20 270 8.0 12.9 0.00 0.00 0.00 27 1004.0
20260503220836 20 270 16.1 25.7 0.00 0.00 0.00 25 1004.0
20260503215815 20 270 14.5 20.9 0.00 0.00 0.00 25 1004.2
20260503214815 20 248 17.7 27.4 0.00 0.00 0.00 23 1004.3
20260503213815 20 293 11.3 17.7 0.00 0.00 0.00 23 1004.5
20260503212816 20 270 17.7 29.0 0.00 0.00 0.00 25 1004.7
20260503211815 20 315 11.3 14.5 0.00 0.00 0.00 25 1004.8
20260503210815 20 293 11.3 17.7 0.00 0.00 0.00 27 1004.9
20260503205815 20 315 9.7 16.1 0.00 0.00 0.00 26 1005.1
20260503204815 20 315 11.3 16.1 0.00 0.00 0.00 26 1005.1
20260503203815 19 315 11.3 20.9 0.00 0.00 0.00 27 1005.3
20260503202815 19 338 9.7 16.1 0.00 0.00 0.00 25 1005.4
20260503201835 19 270 14.5 20.9 0.00 0.00 0.00 28 1005.6
20260503200855 18 315 11.3 19.3 0.00 0.00 0.00 24 1005.9
20260503195815 18 315 9.7 14.5 0.00 0.00 0.00 25 1005.9
20260503194835 18 315 12.9 17.7 0.00 0.00 0.00 25 1006.0
20260503193815 18 270 11.3 17.7 0.00 0.00 0.00 28 1006.0
20260503192855 18 293 4.8 9.7 0.00 0.00 0.00 25 1006.2
20260503191815 18 315 16.1 22.5 0.00 0.00 0.00 29 1006.2
20260503190815 18 315 11.3 22.5 0.00 0.00 0.00 25 1006.2
20260503185835 18 338 11.3 17.7 0.00 0.00 0.00 27 1006.7
20260503184815 18 315 12.9 20.9 0.00 0.00 0.00 27 1006.8
20260503183815 18 315 17.7 32.2 0.00 0.00 0.00 28 1006.9
20260503182815 18 315 12.9 20.9 0.00 0.00 0.00 23 1006.8
20260503181815 18 338 11.3 17.7 0.00 0.00 0.00 23 1007.0
20260503180815 18 270 8.0 16.1 0.00 0.00 0.00 21 1007.1
20260503175817 18 23 8.0 14.5 0.00 0.00 0.00 23 1007.1
20260503174817 17 315 9.7 16.1 0.00 0.00 0.00 25 1007.1
20260503173817 17 315 11.3 17.7 0.00 0.00 0.00 22 1007.2
20260503172837 17 315 16.1 20.9 0.00 0.00 0.00 25 1007.4
20260503171817 17 315 14.5 22.5 0.00 0.00 0.00 25 1007.4
20260503170817 17 315 8.0 12.9 0.00 0.00 0.00 24 1007.5
20260503150816 17 0 8.0 17.7 0.00 0.00 0.00 42 1007.5
20260503130837 12 315 6.4 9.7 0.00 0.00 0.00 60 1006.8
20260503110816 4 338 4.8 4.8 0.00 0.00 0.00 83 1004.7
20260503080816 8 113 1.6 3.2 0.00 0.00 0.00 65 1005.3